Theta_e
321 325 337 347 352 353 352 352 353 353 353 353 354 353 352 351 352 352 352 351 351 350 350 350 349 349 349 349 349 349 349 349 349 349 348 348 348 348 347 347 347 347 347 347 348 347 348 347 348 348 347 346 346 347 350 350 352 354 354 353 352 353 352 350 350 351 351 352 352 354 354 354 353 353 353 353 353 353 352 353 351 348 348 351 353
322 324 336 338 350 352 352 352 351 351 352 352 353 352 352 351 350 351 350 351 351 351 350 350 350 350 350 349 349 349 349 349 349 348 347 347 347 347 347 347 346 347 347 347 346 346 346 346 346 346 346 346 346 346 350 351 352 352 353 353 352 352 351 350 350 350 350 351 352 354 353 353 353 351 352 352 352 353 352 351 349 347 346 353 353
320 322 334 338 348 350 352 351 350 350 351 351 350 352 353 351 353 352 351 351 351 352 351 351 351 351 350 350 350 349 349 349 348 348 347 347 347 347 346 346 346 346 346 346 347 346 346 345 345 345 346 346 346 347 348 352 352 354 353 352 351 352 350 349 350 350 350 352 352 352 349 351 353 352 352 352 352 351 351 350 349 347 348 352 352
323 329 335 339 345 348 352 352 352 352 352 352 352 353 354 353 353 353 351 350 351 352 351 351 351 350 350 350 350 350 350 349 349 348 348 348 347 348 349 347 346 347 346 346 347 346 345 345 346 346 346 349 350 349 348 354 354 353 353 352 351 351 351 350 350 350 351 351 350 347 347 348 349 352 352 352 350 351 350 349 348 349 352 353 352
324 333 338 338 338 341 349 351 353 354 354 354 353 353 352 353 350 353 353 352 351 348 348 348 348 348 348 347 347 349 349 349 349 348 348 348 348 349 350 350 348 347 347 347 347 346 345 345 346 346 345 348 349 351 352 354 353 353 352 352 351 351 350 351 350 351 351 349 348 346 346 347 346 350 352 352 352 351 348 349 350 352 351 351 352
324 330 337 339 340 340 345 348 349 349 351 353 353 351 351 350 352 352 352 353 351 350 348 347 349 348 348 348 349 349 348 349 349 349 348 348 348 348 350 350 349 348 347 347 347 347 346 345 345 346 345 347 349 351 352 353 353 353 352 351 350 350 350 350 351 351 349 347 345 344 346 346 346 348 352 351 351 350 350 350 353 352 352 352 352
323 327 333 336 337 339 343 344 343 344 346 347 347 347 347 347 349 348 347 349 351 349 351 350 349 348 349 349 349 349 349 350 348 349 349 348 348 348 349 349 347 347 347 347 347 346 345 345 344 344 344 347 348 352 352 352 353 353 352 351 350 349 349 350 349 350 347 345 344 343 345 346 346 347 352 351 351 351 351 353 351 352 352 351 352
320 321 324 328 331 336 341 343 341 340 341 341 341 342 345 348 347 347 350 350 350 350 350 351 350 350 350 350 350 348 348 349 349 349 350 348 347 347 348 348 347 347 348 347 348 347 347 345 344 345 343 345 347 351 353 352 352 352 352 351 350 349 348 348 346 347 346 345 343 344 345 345 345 347 353 353 352 352 351 352 352 351 351 351 347
314 315 317 319 321 330 333 334 340 341 341 341 342 343 344 344 345 347 347 347 349 350 348 347 346 346 346 348 347 346 347 346 345 346 347 348 347 347 348 348 347 347 347 348 348 347 347 346 346 345 345 346 347 349 353 352 352 351 351 350 350 349 348 348 346 345 344 344 342 342 345 345 344 345 352 353 354 353 350 349 349 351 351 348 345
310 311 312 314 318 327 327 328 330 331 337 341 342 343 343 343 343 344 346 347 346 346 349 349 348 348 348 349 349 348 347 347 346 346 345 348 348 346 347 347 349 346 347 348 348 348 348 347 346 347 347 348 348 349 353 352 351 351 351 350 350 349 348 346 346 343 344 342 341 341 344 345 344 346 351 353 353 352 350 344 343 345 348 346 346
308 309 309 311 316 326 326 327 327 328 331 333 334 338 341 342 342 343 344 344 345 345 346 346 344 344 347 349 349 348 347 347 347 347 347 347 348 348 347 347 346 346 347 347 348 348 348 349 350 349 349 348 348 347 350 352 352 351 351 350 349 349 348 346 343 344 342 339 339 339 344 344 344 345 353 353 352 352 346 343 342 344 347 347 349
305 307 308 309 319 323 325 325 326 328 329 329 332 334 335 338 342 342 342 343 343 344 344 345 345 345 344 345 345 344 347 347 346 347 346 346 347 346 346 346 346 346 347 347 347 348 348 348 349 350 349 348 348 348 347 349 351 351 350 349 349 348 347 344 343 342 340 338 337 337 341 344 344 346 353 353 352 352 345 344 346 349 350 350 351
303 304 306 307 309 319 323 323 324 326 328 328 329 330 330 333 334 337 341 342 342 342 343 343 343 345 344 343 342 344 342 343 348 347 346 347 347 346 346 346 346 346 346 347 347 348 347 348 347 348 347 348 348 348 347 347 350 350 349 349 348 347 344 341 342 338 339 337 335 335 338 343 344 347 353 353 352 351 348 349 349 350 350 351 351
302 302 304 305 307 316 320 321 321 322 325 327 328 328 329 329 330 331 333 334 336 339 341 342 342 342 342 343 343 344 339 340 341 343 348 347 346 346 346 347 347 346 347 347 347 347 347 347 346 347 346 347 347 347 347 347 347 349 348 348 347 346 342 339 339 339 338 337 334 334 336 341 343 347 354 353 352 352 350 350 350 350 350 350 350
301 302 303 303 303 305 314 318 318 318 321 322 324 325 326 328 328 328 329 330 331 334 336 338 340 340 342 342 342 342 343 342 341 341 341 344 346 347 346 347 345 346 347 347 347 347 346 347 346 346 347 346 346 347 347 347 346 347 348 347 346 343 340 342 339 338 338 337 334 333 335 338 344 349 353 352 351 351 351 351 351 350 349 349 349
302 301 302 302 302 303 304 312 315 315 316 318 319 321 322 324 325 325 327 328 328 329 330 332 334 337 339 341 342 342 341 342 341 340 340 340 341 346 345 344 346 346 345 345 345 345 345 346 346 347 346 346 347 347 347 347 346 345 346 346 343 340 337 336 340 338 336 333 334 333 334 336 343 349 353 351 350 351 350 351 352 350 350 349 349
302 302 300 301 302 302 302 304 309 311 313 314 315 317 318 320 320 320 322 324 325 326 327 329 330 331 334 336 337 338 338 340 340 339 339 339 338 340 345 345 345 346 346 346 345 345 345 345 346 346 346 346 347 347 347 347 346 344 343 342 341 340 336 333 341 339 337 331 333 333 334 336 340 349 353 351 351 351 351 350 351 351 350 349 349
300 300 299 300 300 301 301 301 304 303 302 306 311 314 315 318 316 317 318 319 320 322 323 325 327 329 331 332 332 332 333 334 336 338 339 339 339 339 338 343 346 346 345 345 345 344 343 342 344 346 345 345 346 347 347 346 345 343 341 341 340 338 335 329 340 341 338 333 331 332 333 336 339 348 353 351 350 350 350 351 349 350 350 349 349
298 298 299 299 299 300 300 299 302 302 301 302 303 304 312 315 314 313 314 315 317 318 319 320 323 325 327 327 327 326 326 328 330 332 334 335 334 334 335 339 342 343 344 345 345 344 342 342 345 346 345 344 345 345 346 345 343 341 340 338 336 334 331 330 338 340 338 333 331 332 333 336 339 347 352 351 350 350 349 350 349 349 350 349 347
297 298 298 298 298 299 299 298 299 301 300 301 302 300 306 312 311 311 312 312 314 315 316 316 317 318 320 322 321 324 325 327 326 328 328 331 330 329 330 337 339 340 342 343 343 344 344 345 345 345 344 343 343 343 342 342 342 340 338 336 333 328 334 336 337 338 337 335 332 332 334 337 342 347 352 350 350 350 349 350 350 349 349 349 348
297 297 297 298 297 298 298 297 297 299 299 299 301 300 302 309 306 307 309 310 311 313 313 312 312 313 314 316 318 323 325 327 328 329 325 328 325 324 328 334 337 338 339 341 343 342 342 344 344 344 343 342 338 336 334 338 340 339 338 335 330 333 337 337 337 336 336 334 332 332 334 337 343 347 351 350 350 350 349 349 349 348 348 348 346
293 294 295 297 296 296 298 297 297 298 298 299 301 299 299 303 298 298 300 302 306 308 305 305 308 307 310 311 315 319 321 323 325 325 328 328 328 325 325 329 334 335 336 339 340 340 339 340 344 343 341 339 335 336 333 329 332 336 334 330 333 336 333 333 336 336 332 332 331 332 335 339 344 348 350 349 349 349 349 347 348 349 349 347 348
292 293 294 295 296 295 297 297 296 297 297 297 300 298 297 298 297 298 299 303 301 302 302 303 302 302 303 308 312 315 317 320 322 322 323 322 323 322 324 327 330 331 332 334 336 339 340 341 342 341 339 336 335 334 333 334 333 326 326 331 335 336 334 334 335 335 333 332 332 331 334 340 345 348 349 349 349 348 349 348 349 348 348 348 348
291 291 293 296 295 294 296 296 296 296 297 296 298 296 296 297 297 297 297 297 298 299 300 300 299 299 302 306 309 312 314 316 318 319 320 325 326 323 324 324 325 326 325 327 329 333 338 338 338 338 335 331 333 333 333 334 334 334 333 334 335 335 334 334 335 334 333 332 332 331 334 340 345 347 349 349 349 349 347 348 346 347 348 347 348
291 292 292 293 294 294 295 295 295 296 296 295 296 295 296 296 296 296 297 297 297 298 299 298 298 298 301 305 306 306 307 310 315 318 321 322 323 324 325 326 327 328 325 328 328 329 330 332 333 333 333 332 332 333 333 334 334 334 333 332 333 333 332 333 334 334 333 333 332 330 332 338 344 347 348 348 349 349 350 348 347 346 347 347 347
291 290 291 291 292 293 294 294 294 294 295 295 295 296 295 295 295 295 296 296 297 297 298 297 297 298 300 303 303 301 301 305 310 314 317 319 320 321 323 324 325 326 327 328 329 329 329 331 331 331 331 331 331 331 332 333 334 333 333 332 332 332 332 332 332 333 332 332 331 328 330 335 343 347 348 348 346 349 350 347 346 346 347 347 346
290 290 290 290 293 292 293 293 293 294 293 294 294 293 293 294 295 295 295 294 296 296 297 297 297 298 300 301 300 298 299 302 305 307 309 310 311 315 317 319 321 324 326 327 328 329 328 328 329 329 330 329 329 330 330 332 334 333 333 332 332 332 332 331 331 332 331 331 328 326 328 331 341 346 347 348 347 346 350 349 348 348 346 346 346
289 289 289 290 291 291 291 291 292 293 292 292 292 291 292 294 294 295 294 296 296 295 295 296 297 297 300 300 299 297 298 300 301 301 301 303 305 311 314 316 318 321 324 326 326 327 328 328 327 328 328 328 328 328 329 331 333 334 333 332 332 332 332 331 331 331 331 330 330 326 326 329 333 340 347 347 348 347 348 348 347 346 347 347 347
289 289 289 289 290 292 290 291 291 292 292 292 291 292 292 292 292 292 292 297 293 294 294 295 295 296 298 298 298 297 297 299 298 298 299 300 305 310 310 311 314 316 320 322 324 325 326 327 326 326 327 327 327 327 328 330 331 332 333 332 332 332 331 331 331 330 330 330 330 327 324 327 332 337 342 348 349 347 349 351 350 349 345 348 348
289 289 289 289 290 291 290 290 291 292 292 291 291 292 292 292 292 292 292 294 292 293 293 293 294 295 296 296 297 297 297 297 297 297 297 299 304 305 306 309 311 314 318 320 322 324 324 326 326 325 326 326 326 327 327 329 329 330 331 331 331 331 331 330 331 330 330 329 329 328 321 324 329 335 340 343 348 348 350 350 348 348 346 347 343
289 288 288 289 291 289 290 290 291 292 291 291 291 291 292 291 292 292 292 292 293 293 293 293 293 294 295 296 296 297 297 297 296 296 297 299 302 302 305 306 307 309 313 316 320 321 323 323 324 325 325 325 326 326 326 327 328 329 329 329 330 330 330 330 329 330 330 329 329 328 325 322 326 330 335 340 344 347 348 350 349 348 344 341 342
288 288 288 289 289 288 289 290 290 291 291 290 291 291 290 291 291 291 291 292 292 292 292 292 293 293 294 295 295 296 297 296 296 296 296 298 300 302 303 302 302 306 310 313 316 318 320 322 323 325 325 325 325 326 326 326 327 328 328 328 329 328 329 329 328 329 329 329 329 328 327 326 322 325 329 336 343 345 345 347 345 342 344 342 345
288 289 288 288 287 289 290 290 290 289 290 290 290 290 290 291 291 291 291 292 291 291 291 292 292 293 294 294 294 294 295 295 295 295 296 297 298 300 300 300 301 304 306 309 311 314 317 319 321 323 323 324 324 323 324 325 326 326 327 327 327 327 327 328 328 329 329 329 328 328 328 327 327 322 324 328 337 342 342 343 340 340 343 343 343
288 287 287 287 289 291 293 292 291 289 291 290 291 290 290 291 291 291 291 291 291 291 291 291 292 292 293 293 293 293 294 295 295 295 295 296 297 298 298 298 300 302 303 306 308 312 314 316 318 320 319 321 322 322 322 323 324 325 325 325 326 326 326 326 327 327 328 328 328 327 328 328 329 329 329 324 328 334 338 339 338 340 341 342 344
287 287 286 287 287 288 292 290 290 289 289 290 290 290 291 290 290 290 290 290 290 290 290 290 291 291 292 292 292 292 293 293 294 294 294 295 296 297 297 298 300 301 302 304 306 309 312 314 316 317 319 320 321 321 322 323 323 323 324 324 324 325 325 325 325 325 325 327 327 327 328 328 329 330 330 331 321 325 331 335 337 339 340 341 342
286 286 286 287 286 287 289 287 288 289 289 290 290 290 290 290 290 292 290 290 289 289 289 290 290 291 291 290 291 291 291 292 292 293 293 295 295 296 296 297 299 300 300 302 303 305 308 311 312 314 315 318 319 320 322 321 322 322 322 323 323 323 324 324 324 324 324 325 325 326 327 327 326 328 323 329 328 325 324 329 333 337 337 338 342
286 286 285 285 286 287 288 288 288 288 289 289 289 289 290 289 289 289 289 289 289 289 289 290 290 290 290 289 290 290 290 290 290 291 292 294 295 295 296 297 298 299 299 300 301 304 306 308 310 311 313 315 318 319 320 321 321 321 321 321 322 321 322 323 322 323 323 323 323 324 324 325 322 317 325 324 324 326 321 324 328 331 331 334 339
286 285 285 285 286 286 287 289 288 288 288 289 289 289 289 289 289 289 289 288 288 288 289 289 288 288 288 288 288 288 289 288 289 290 291 293 294 295 296 297 298 298 298 299 300 302 304 306 306 308 310 312 314 318 319 320 321 320 320 319 320 319 320 321 321 318 321 322 321 321 323 323 321 322 323 323 323 324 325 322 323 323 322 328 336
285 284 284 285 285 286 287 287 288 288 288 288 289 289 289 288 288 288 287 287 287 288 288 287 287 286 286 286 287 287 288 288 289 290 291 292 294 295 295 296 297 297 297 298 298 299 301 303 303 304 306 307 309 315 320 320 319 319 319 319 319 318 319 319 319 319 320 321 320 320 320 320 321 322 322 321 321 322 322 324 326 328 327 323 333
284 284 285 285 285 285 286 287 287 288 288 288 288 287 287 287 286 286 286 286 286 286 286 286 286 285 286 286 286 287 288 287 287 288 290 292 293 294 294 295 296 296 296 296 296 297 297 299 301 303 303 304 306 310 318 319 318 318 316 318 318 318 317 316 317 319 318 318 317 317 318 318 318 320 320 320 321 321 322 323 321 327 327 325 325
283 283 283 284 284 285 286 286 286 287 287 287 287 286 285 285 285 284 284 284 284 285 285 284 284 285 285 285 286 286 285 285 286 286 287 290 291 293 293 294 295 296 296 296 296 297 298 299 301 302 301 300 301 305 313 319 316 314 316 315 315 316 314 314 316 317 317 318 316 316 317 317 317 317 319 319 319 320 321 322 324 324 325 325 325
283 283 283 283 284 285 285 285 286 286 286 286 286 286 285 285 284 283 283 283 283 283 282 283 284 285 285 285 284 284 284 284 285 285 285 286 287 290 292 294 295 295 295 296 296 297 298 298 300 299 300 299 299 302 305 313 312 311 309 309 309 311 311 312 314 314 316 316 315 315 314 316 315 316 316 317 318 320 320 321 322 322 324 325 324
282 282 282 283 284 284 284 284 285 285 285 286 286 285 285 285 284 283 283 283 283 283 283 284 284 283 283 283 284 284 284 283 284 284 285 286 287 288 290 292 293 294 294 295 295 295 296 297 298 298 297 299 299 300 301 303 307 313 311 307 302 303 303 308 310 311 314 314 315 315 315 315 315 315 316 316 317 317 319 320 320 321 321 323 322
282 281 282 283 284 284 283 284 284 285 285 285 287 285 285 285 284 284 283 283 282 284 283 283 283 282 282 283 283 283 283 283 283 284 285 286 286 286 288 290 292 294 295 295 295 295 296 296 297 298 299 296 296 296 299 301 301 311 304 306 304 305 300 302 306 307 309 313 314 314 314 315 314 314 315 316 316 317 318 319 320 320 320 321 322
282 281 282 283 285 283 284 284 284 284 284 285 284 284 284 283 283 283 283 282 282 281 281 280 281 281 281 281 281 282 282 283 283 284 284 284 285 286 287 288 290 293 294 295 295 295 296 297 298 298 298 296 295 296 297 299 299 302 310 306 302 303 303 305 306 304 306 310 312 314 312 314 314 314 315 315 316 317 317 318 319 320 320 319 320
281 282 282 283 283 283 284 284 284 284 284 284 283 284 283 282 281 280 279 279 278 278 278 278 278 279 279 280 281 281 282 282 283 283 283 283 283 285 286 288 289 292 294 295 295 296 296 297 297 297 297 298 296 295 294 297 298 298 302 314 310 306 306 306 306 299 300 305 311 312 312 313 314 313 315 314 315 316 316 318 318 318 318 319 318
281 282 282 282 283 283 284 284 283 283 284 283 283 283 282 281 280 279 279 278 278 278 279 279 279 279 280 279 280 280 281 281 281 282 282 282 283 284 285 287 288 290 292 294 295 295 296 297 297 296 297 298 298 294 294 294 296 297 298 303 312 303 310 307 303 301 297 299 305 310 311 313 314 314 314 314 314 315 316 316 317 317 317 317 317
281 282 282 283 282 283 283 283 283 283 283 282 282 282 281 281 280 279 280 279 278 278 279 279 280 280 279 278 279 279 280 280 281 281 281 281 282 282 283 284 287 290 292 293 294 296 297 297 296 296 297 297 297 295 294 295 293 293 296 297 306 307 311 311 310 305 302 299 299 301 309 312 313 314 315 314 314 314 314 315 317 316 317 317 317
281 281 282 282 283 283 283 282 282 282 282 282 282 281 281 281 280 279 278 279 279 279 279 279 278 278 277 278 278 278 279 279 280 280 280 280 280 280 281 282 284 287 291 293 294 296 296 297 296 295 296 297 297 296 295 294 294 294 294 294 298 307 309 310 308 308 304 301 301 302 303 309 312 313 314 315 315 315 314 315 316 316 314 315 317
281 282 282 282 282 282 282 282 281 281 281 281 280 280 280 280 279 279 278 278 278 278 278 277 277 277 276 276 277 277 278 278 278 279 279 279 279 279 280 281 283 287 290 292 293 294 296 298 297 295 295 296 297 297 295 295 295 295 296 294 291 300 307 307 305 305 305 307 302 303 304 304 304 308 312 313 314 314 314 314 314 315 316 316 316
280 281 281 282 282 282 281 281 281 281 281 280 280 279 279 279 279 278 278 277 277 277 276 276 276 276 275 275 276 276 277 277 277 277 277 278 278 279 280 280 282 286 289 291 292 292 294 296 297 296 296 296 296 297 296 296 295 295 295 295 293 293 305 304 305 306 306 303 302 305 306 307 308 306 308 312 313 314 314 314 314 313 315 316 316
Wind_Speed
12 12 7 4 3 4 6 6 7 6 5 5 6 5 6 7 6 6 7 7 7 7 7 7 8 8 7 8 7 7 7 7 7 7 6 6 5 5 5 6 6 7 7 8 8 9 9 9 10 10 9 9 8 7 7 7 8 10 10 10 11 10 8 6 5 7 6 7 11 10 10 11 12 11 14 14 15 15 12 13 12 9 8 9 15
13 13 5 2 2 3 4 5 5 6 6 5 6 6 6 6 7 7 8 7 8 9 9 9 9 9 9 9 9 9 8 8 8 8 8 7 7 7 7 7 7 7 8 9 9 9 10 10 10 11 11 10 9 9 7 7 7 8 10 11 11 10 9 9 7 7 6 9 8 9 11 12 13 13 13 16 15 16 11 12 13 8 5 14 15
8 8 5 4 2 3 3 3 3 5 6 7 6 5 6 6 6 6 8 9 10 10 11 11 11 10 10 10 10 10 9 9 9 9 8 8 8 8 7 8 8 8 8 9 9 10 10 10 11 11 11 10 9 9 8 7 7 8 9 11 12 11 9 9 8 7 7 8 7 8 10 10 12 14 15 16 15 14 11 12 12 10 8 16 14
9 10 6 6 7 4 2 2 1 2 5 6 8 6 5 5 7 7 7 10 10 11 12 11 11 11 11 11 11 10 10 10 10 9 9 9 9 8 8 9 10 10 9 9 9 10 10 10 10 11 11 8 7 7 8 7 7 9 9 12 13 12 9 10 9 9 8 9 7 8 5 6 8 13 15 16 15 15 11 12 13 12 15 17 16
9 10 10 7 6 8 10 8 7 5 5 6 7 7 8 6 7 7 8 9 12 10 10 12 11 12 11 10 11 13 11 11 11 10 10 10 10 8 7 7 10 10 10 10 10 10 10 10 10 11 11 9 7 6 7 7 8 9 10 12 13 12 12 10 11 10 9 10 9 7 5 6 6 11 16 16 16 15 11 13 13 15 17 17 15
9 9 10 9 9 10 12 14 13 10 9 9 9 9 9 10 9 8 9 9 11 9 10 12 11 10 11 11 12 12 13 13 11 11 11 11 11 10 8 6 6 8 10 11 12 11 10 11 10 11 11 10 9 6 8 9 9 10 10 12 13 14 13 11 11 11 11 10 9 5 5 7 7 8 18 15 14 13 13 14 14 16 15 18 16
9 8 9 9 8 9 13 15 18 17 15 15 15 14 13 11 14 12 12 13 11 11 10 11 11 11 12 13 14 14 14 11 9 12 13 11 11 11 9 8 10 10 11 12 12 12 12 11 11 10 11 9 9 6 9 10 10 10 11 11 13 14 14 11 11 11 11 8 5 5 5 6 7 5 17 16 16 14 14 16 16 15 18 18 19
12 10 10 11 10 14 16 15 16 17 18 18 18 18 17 16 14 13 12 13 14 12 12 11 12 13 13 14 14 14 15 13 11 14 14 12 11 11 10 9 10 11 12 13 13 12 12 13 11 10 11 9 9 7 9 11 11 11 11 11 14 14 15 12 12 12 12 7 5 5 5 5 6 6 17 18 18 16 16 18 18 17 18 17 12
12 11 11 11 12 22 21 21 20 18 18 17 16 16 17 18 18 16 15 14 14 14 13 14 14 14 15 12 13 13 12 14 16 15 14 13 11 10 10 9 10 12 12 13 13 13 13 13 11 12 12 11 9 8 11 12 12 12 13 13 14 15 14 13 14 13 9 5 6 6 6 5 5 5 14 18 19 19 17 12 14 19 19 14 13
11 10 11 9 11 20 22 24 24 23 22 21 20 19 19 18 18 18 18 17 15 16 16 13 13 16 13 12 14 13 13 14 13 13 13 11 12 12 12 10 9 11 13 13 13 13 13 14 13 13 11 11 10 8 10 12 13 13 13 14 14 16 14 14 14 12 7 6 6 6 7 8 5 6 13 17 19 19 16 10 5 8 10 14 14
12 11 10 10 13 19 22 24 23 23 23 22 22 22 22 21 19 19 18 19 18 19 18 17 15 15 16 15 13 14 14 13 12 13 11 9 9 8 10 11 12 12 11 12 14 15 14 13 13 13 13 13 11 10 9 11 13 13 14 14 14 15 15 14 15 8 7 6 6 6 8 12 7 6 14 18 19 17 13 13 8 10 14 17 16
11 10 10 10 12 19 20 23 23 23 22 23 22 22 23 22 21 21 21 19 19 19 19 18 17 18 18 18 18 16 15 12 13 12 11 11 11 8 8 9 12 12 11 13 14 15 15 14 13 12 13 12 11 11 10 11 12 13 14 13 14 14 15 15 11 8 6 7 6 6 6 8 8 9 18 19 19 18 15 13 14 17 19 19 18
11 11 9 9 9 17 18 22 23 23 23 23 23 24 24 23 22 22 22 22 21 20 19 18 18 15 16 15 17 17 17 18 14 12 12 13 13 10 11 12 13 12 13 13 14 15 16 15 14 14 13 12 11 12 12 12 13 14 14 15 14 14 14 15 9 7 6 6 6 6 6 7 7 12 18 20 20 19 18 16 19 19 20 20 20
10 11 10 9 9 13 17 19 22 23 23 23 23 24 24 24 24 23 23 23 22 22 21 19 18 18 16 15 15 16 14 21 21 17 13 13 13 12 12 13 13 13 13 14 16 16 16 17 16 15 14 11 10 11 12 12 13 16 15 15 16 15 15 12 10 8 8 8 7 7 6 7 7 14 18 20 21 21 20 19 20 21 21 21 22
11 10 9 10 10 10 15 17 19 21 22 23 23 23 25 24 23 24 23 24 23 23 22 22 21 19 18 18 17 16 15 15 17 19 20 14 11 12 12 13 14 14 14 15 17 18 18 18 17 16 14 12 10 9 11 13 14 15 16 15 15 15 15 9 8 9 9 8 7 7 6 6 11 14 19 21 22 22 21 20 21 21 20 19 19
9 9 10 11 11 9 10 13 16 18 18 20 22 23 24 24 24 25 24 23 23 23 24 23 23 22 21 20 19 19 18 18 17 18 17 22 17 12 13 15 15 14 14 15 18 19 18 19 17 14 13 11 10 10 10 13 14 15 16 16 16 16 15 11 8 9 8 8 6 6 7 7 14 15 19 21 22 23 22 21 21 22 22 21 22
9 10 11 12 10 10 11 11 14 18 15 18 18 20 22 24 24 25 25 24 24 24 23 23 23 23 22 21 20 18 17 16 19 18 17 17 22 19 11 12 15 14 15 16 16 18 18 17 16 15 14 12 12 11 11 13 14 15 16 16 16 16 15 14 9 10 9 8 8 7 7 7 13 17 19 21 22 24 24 23 23 22 22 22 20
7 8 11 9 10 10 10 11 12 12 13 13 15 18 21 22 23 24 24 25 25 25 24 23 21 20 18 17 17 17 16 18 18 19 19 18 16 20 21 14 13 14 15 16 17 16 17 18 18 15 14 14 13 12 12 13 14 15 16 16 16 16 15 16 10 9 10 9 9 7 6 9 14 17 21 23 23 22 24 24 25 23 24 24 22
7 8 8 10 9 8 9 9 10 11 13 11 11 13 19 20 22 24 23 24 25 25 24 24 21 17 16 17 18 17 16 16 15 15 18 18 16 17 18 21 16 16 17 16 18 18 18 22 18 15 15 15 14 13 13 14 15 16 17 17 17 16 17 13 11 10 10 8 8 8 8 13 15 19 23 24 23 25 25 25 25 24 23 23 22
6 7 8 9 8 9 9 9 10 11 11 12 12 14 15 19 19 22 23 24 22 22 23 22 21 19 20 19 17 14 12 12 16 13 12 15 16 16 16 21 22 19 17 17 19 20 19 17 16 17 16 15 15 14 14 14 15 16 17 18 17 18 13 10 12 11 10 9 9 9 10 15 15 19 23 25 24 25 26 26 25 25 22 24 19
7 9 8 8 10 9 10 9 9 10 11 10 10 12 14 18 13 15 18 21 21 20 19 18 18 17 19 18 17 12 10 10 11 11 15 11 14 16 18 22 23 20 20 19 19 18 19 18 17 17 17 16 15 16 15 14 15 16 17 19 20 13 12 11 11 10 9 8 8 9 14 15 16 19 23 25 26 25 26 25 26 24 26 21 24
7 8 9 8 10 9 9 10 10 10 10 8 7 8 10 11 13 13 13 16 13 17 15 15 15 13 18 16 13 11 11 10 10 11 10 12 11 14 15 18 24 22 20 20 21 20 23 22 18 17 17 17 17 11 9 11 16 16 18 21 15 10 7 7 11 11 8 7 9 12 18 16 16 19 24 26 26 25 22 25 27 26 24 26 23
7 7 7 7 8 7 7 8 10 9 10 9 7 8 9 7 9 11 11 13 15 14 12 13 13 14 13 12 11 11 12 11 11 12 12 14 13 14 15 16 19 20 21 21 21 21 20 20 19 18 17 18 13 7 7 6 8 16 18 14 10 10 8 12 11 10 11 12 12 17 20 17 18 20 25 28 27 25 25 27 25 27 27 25 24
5 4 6 5 7 7 7 5 6 6 7 7 6 8 8 7 7 8 9 9 11 11 12 13 12 13 13 11 11 12 13 11 13 15 13 10 11 14 15 15 16 17 20 18 20 21 22 21 20 20 15 10 7 8 7 7 7 7 9 9 10 10 10 11 11 10 10 13 12 19 21 18 19 21 24 28 28 27 27 25 27 27 27 26 25
3 4 4 5 5 6 5 5 5 4 5 6 5 7 7 6 6 6 8 8 8 10 10 12 12 14 13 10 11 11 12 11 11 11 10 10 10 10 11 10 9 10 13 11 10 12 13 11 11 13 9 9 9 8 8 8 8 8 9 9 10 9 9 10 11 10 11 11 13 19 21 20 19 22 25 29 29 26 26 28 28 29 30 31 30
4 5 4 5 4 5 5 4 4 5 6 6 6 6 7 6 6 6 6 6 7 8 8 9 11 13 12 12 11 12 12 11 11 12 12 11 11 11 11 11 11 11 10 10 10 10 11 11 11 11 10 9 10 9 9 9 9 9 9 10 10 10 9 10 10 10 11 11 13 21 22 22 20 22 24 29 29 28 25 25 29 29 29 28 30
4 4 4 4 5 5 6 6 5 5 5 4 5 6 6 5 6 6 6 6 6 6 8 8 9 10 11 12 12 12 12 11 11 12 13 12 13 12 12 12 13 12 10 10 12 11 11 12 11 11 10 10 10 10 10 10 10 10 10 10 11 11 10 10 10 10 11 11 12 20 20 22 21 23 25 28 30 29 28 28 29 29 30 32 32
2 4 4 4 5 6 5 4 4 4 5 5 5 6 5 5 5 5 6 6 6 6 6 6 7 9 9 10 10 10 11 12 12 11 11 11 11 11 11 11 11 12 12 11 12 11 11 10 11 11 11 11 11 11 10 10 11 11 11 11 11 12 11 11 11 12 11 11 11 17 21 22 23 24 25 28 28 29 30 31 33 32 33 32 32
2 3 3 3 4 4 5 6 4 5 6 7 7 7 7 7 7 7 8 8 7 8 8 7 6 7 7 8 8 10 10 10 11 11 11 11 11 10 11 11 12 12 12 12 11 11 12 12 12 12 11 11 10 11 10 11 10 11 11 11 12 12 12 12 12 13 12 12 12 15 22 22 23 23 25 26 28 30 31 31 32 35 34 34 31
2 3 4 4 4 4 5 5 5 6 6 6 7 8 8 9 9 9 9 9 9 10 9 8 8 8 8 6 7 8 9 10 10 10 11 13 11 11 11 11 11 11 12 12 11 11 12 12 13 13 14 12 11 12 10 11 12 12 11 11 12 12 12 12 13 13 12 12 12 12 18 18 18 21 24 25 26 30 33 34 30 31 32 27 28
3 5 4 4 5 5 5 5 5 5 5 6 5 7 7 7 7 6 7 9 11 11 10 10 9 9 9 9 8 8 10 10 10 10 9 10 11 11 10 10 11 11 12 13 12 12 12 12 13 12 9 10 11 11 11 12 11 12 12 12 11 10 11 12 12 13 13 12 12 11 13 22 22 20 21 23 26 28 29 32 33 33 27 28 30
4 4 4 4 5 4 4 4 4 4 5 6 6 6 6 5 4 5 7 8 9 9 10 9 10 10 11 10 9 10 10 10 10 10 11 11 9 10 11 10 10 11 11 12 14 14 13 13 14 14 13 13 12 11 11 11 12 12 11 12 11 10 11 11 11 13 14 14 13 12 11 17 23 22 23 23 25 25 29 26 25 27 28 29 33
2 1 3 4 4 3 3 4 4 5 5 7 6 5 6 6 6 8 9 9 10 9 10 10 9 10 9 10 11 13 11 10 11 12 11 11 11 10 9 10 10 10 12 14 16 14 13 13 13 13 13 12 12 12 10 11 12 12 11 12 11 12 11 11 12 14 15 15 13 11 11 13 15 21 24 24 25 23 24 23 23 28 33 33 31
2 3 3 4 3 3 3 3 4 5 5 6 8 7 8 7 8 9 10 11 11 11 11 10 10 9 9 10 11 12 12 12 12 13 13 12 11 10 9 8 9 11 11 12 12 12 13 14 14 13 12 12 14 13 11 11 11 11 11 12 11 12 11 12 12 13 13 13 14 13 12 12 14 14 16 23 24 24 24 24 24 29 28 29 30
2 2 3 4 3 4 3 3 4 5 7 9 10 9 8 9 10 10 10 12 11 11 11 11 10 10 10 9 10 12 13 14 13 13 14 12 12 11 10 9 8 9 11 10 11 12 12 13 12 14 14 13 14 14 14 14 13 13 12 11 12 12 12 13 12 11 12 13 13 14 14 13 13 12 13 12 16 21 21 23 26 26 28 30 32
1 2 3 3 4 4 4 4 5 7 9 10 10 10 10 9 9 9 10 11 11 11 11 11 11 11 11 11 12 13 13 14 15 15 15 13 12 12 10 9 9 8 9 10 10 12 12 13 13 13 15 15 14 14 13 14 13 13 11 11 12 12 12 12 12 12 10 11 11 11 13 13 13 13 13 11 9 11 18 21 24 22 23 25 33
1 2 3 4 4 5 4 5 8 10 9 10 10 9 10 11 10 10 11 11 11 12 11 11 11 11 11 12 14 15 16 17 18 17 16 15 13 13 11 9 7 8 8 9 10 10 11 13 13 13 13 15 16 16 13 12 13 13 12 12 12 12 13 13 11 11 11 11 11 11 11 11 10 12 10 8 7 6 13 20 19 24 23 26 32
1 2 3 3 4 4 4 5 7 6 6 7 8 8 9 9 9 9 10 12 12 10 11 11 12 11 13 12 16 15 16 17 17 16 15 15 14 13 12 10 8 7 8 8 10 10 11 11 14 13 13 14 16 16 14 12 13 12 12 13 13 11 12 12 11 10 11 12 11 11 11 9 10 10 9 8 8 7 7 14 20 16 21 26 31
1 3 4 4 4 4 4 6 6 7 7 8 8 8 10 8 7 9 10 10 9 10 11 12 11 11 13 15 17 15 15 15 15 15 14 14 13 12 11 11 9 8 8 9 9 10 11 11 12 15 14 13 15 18 16 14 14 14 14 15 14 13 11 11 11 11 11 13 12 11 9 9 10 11 10 9 7 7 7 7 9 12 12 27 31
3 4 4 4 4 4 4 6 6 7 6 7 9 10 9 9 11 11 9 9 11 10 10 10 11 12 13 15 14 13 13 16 19 19 17 14 13 13 13 12 10 8 9 10 10 9 11 13 14 13 15 15 14 16 17 15 15 15 15 14 14 14 13 12 12 12 10 9 9 8 10 9 8 9 9 8 9 8 8 7 8 10 11 17 20
4 3 4 4 4 3 6 8 6 7 8 9 9 10 10 11 9 9 10 10 11 10 8 8 10 9 12 14 14 14 17 17 16 17 19 18 15 14 14 12 11 9 9 10 10 10 11 10 11 10 12 14 14 14 17 15 14 12 12 14 13 14 14 13 14 12 11 10 8 9 8 9 8 7 9 8 9 9 7 8 8 8 10 7 11
4 4 4 4 4 5 6 5 5 5 6 6 8 8 6 7 9 10 10 9 8 10 11 9 10 10 11 15 15 16 15 14 15 16 17 16 16 15 14 13 11 11 11 11 9 8 9 10 8 11 7 9 12 13 14 16 12 14 12 10 9 6 9 11 12 11 10 10 10 10 6 9 9 8 7 8 8 10 9 8 8 6 8 8 5
3 4 4 4 4 4 4 4 4 4 4 5 7 6 6 6 8 9 10 11 8 6 8 10 10 13 14 13 15 15 15 16 13 14 14 14 14 14 13 14 14 13 12 11 10 10 8 10 9 9 12 7 9 12 12 12 17 13 12 9 6 9 1 6 6 9 11 10 9 11 9 8 9 7 7 6 7 7 7 8 7 8 7 8 7
3 4 4 3 2 3 4 3 3 4 5 6 5 5 6 7 7 9 10 9 11 12 10 7 8 11 13 12 11 12 15 14 14 16 12 14 15 15 15 14 16 13 12 12 12 12 9 8 8 7 8 12 9 12 10 12 13 14 11 13 11 12 9 10 12 7 6 9 12 11 10 8 8 7 6 8 8 8 8 7 9 9 8 8 9
3 3 3 2 2 4 3 2 2 4 4 4 4 5 7 9 9 10 7 9 8 8 11 12 11 10 11 10 11 10 12 13 14 13 14 17 16 15 15 14 16 15 13 13 13 12 10 7 8 8 6 8 12 10 14 12 16 15 15 7 5 10 12 11 14 7 7 8 7 11 10 11 10 9 8 7 6 7 8 9 9 10 10 8 10
3 3 2 3 3 3 2 2 3 3 4 4 4 5 7 9 11 12 15 13 13 10 9 13 16 16 15 12 14 15 13 13 12 12 13 13 17 17 15 15 14 14 13 13 13 12 10 9 8 7 6 6 8 11 13 14 12 15 19 18 14 13 17 13 17 11 4 5 9 8 9 11 8 9 8 8 9 9 9 11 11 12 13 12 9
3 3 3 4 4 3 1 1 2 3 3 3 4 5 7 7 8 9 9 11 13 12 10 9 9 12 12 13 14 12 15 14 13 12 13 13 15 15 15 15 13 14 13 13 14 14 12 9 7 6 6 5 6 10 13 14 14 13 14 21 19 2 6 15 14 9 8 2 4 10 11 12 11 10 11 11 11 10 9 11 12 13 13 13 12
3 3 4 4 4 3 1 3 3 3 4 3 4 4 7 8 9 9 9 9 10 13 14 13 12 11 13 14 13 13 13 12 12 13 11 13 14 16 18 18 16 13 12 13 15 14 11 8 7 7 6 5 7 9 12 11 10 15 13 17 21 9 10 15 18 21 18 16 10 3 7 11 10 10 11 12 11 11 11 11 13 12 12 14 13
3 3 4 4 4 2 2 3 3 4 4 3 3 4 4 7 8 8 10 9 9 11 11 11 13 12 15 13 12 13 11 12 12 13 12 13 13 16 17 17 17 16 13 13 14 15 14 11 8 7 6 7 7 8 9 11 10 13 12 15 19 14 9 16 14 14 15 16 15 13 10 8 10 10 10 12 12 12 11 12 13 15 11 15 14
4 4 4 4 4 3 3 2 4 3 3 4 3 4 4 5 8 8 11 13 10 10 9 11 11 12 14 15 13 12 12 12 12 10 13 13 15 16 16 15 16 14 13 13 15 16 15 11 10 8 7 8 7 8 10 10 10 12 7 8 12 17 10 9 12 12 9 19 20 16 15 18 14 12 12 13 14 13 12 11 12 12 13 10 12
3 4 5 4 4 4 2 3 4 4 4 4 4 4 4 5 7 8 10 13 14 12 12 13 11 12 13 13 12 13 11 12 12 13 12 13 15 14 13 15 17 14 14 13 13 13 15 13 9 9 8 9 7 8 10 10 10 12 13 11 10 15 16 13 16 16 17 13 14 19 17 18 21 16 11 13 14 14 13 11 12 11 14 15 13
Wind_Direction
329 325 304 272 231 243 241 232 232 233 229 236 237 236 235 233 214 222 226 228 231 227 228 230 228 222 228 236 239 247 250 257 261 263 264 253 246 248 261 270 275 279 284 285 284 284 279 280 284 288 287 289 286 274 263 264 265 251 239 227 218 214 193 194 201 187 210 225 198 165 161 167 168 171 174 168 160 155 150 137 128 135 141 146 149
306 307 294 288 262 249 249 241 242 244 248 254 255 251 250 251 251 231 246 237 234 233 230 231 233 231 227 227 230 233 240 244 252 261 266 264 262 257 258 265 273 278 283 287 286 288 287 284 282 283 285 283 284 285 265 263 257 253 242 230 215 214 195 191 202 196 211 223 192 161 163 169 170 170 170 160 159 157 145 132 136 140 143 152 153
295 334 339 309 297 269 267 241 250 249 254 260 270 265 258 254 263 257 231 237 240 236 234 235 236 236 236 237 236 237 234 238 240 247 255 267 269 269 265 264 267 267 274 284 290 289 286 284 284 282 280 279 281 290 275 248 247 250 238 230 219 206 201 191 198 209 224 211 178 160 158 166 167 166 168 160 156 158 143 135 142 146 151 155 158
356 2 2 341 337 344 6 341 311 325 316 321 319 293 272 250 238 256 248 245 243 242 242 244 245 244 244 243 243 244 246 243 245 251 249 254 262 257 241 246 252 257 264 271 283 286 288 287 284 284 283 279 268 273 266 239 242 246 245 232 221 213 206 199 197 205 214 189 167 159 158 161 163 166 165 154 161 163 143 141 146 151 155 156 152
14 12 21 15 352 348 354 358 3 18 352 335 318 327 306 284 274 252 247 248 249 267 298 300 291 286 284 285 280 270 254 246 248 250 262 263 263 264 257 240 240 250 257 271 281 284 281 284 285 282 282 285 279 252 239 242 240 242 240 231 219 214 209 205 202 200 200 180 167 166 169 162 158 168 164 159 164 161 149 147 153 154 155 153 144
20 18 21 28 23 8 0 358 349 352 343 333 322 316 312 308 289 269 258 255 261 241 245 257 269 278 279 275 269 264 265 255 250 252 245 255 266 268 263 254 247 247 262 274 280 281 280 278 278 279 279 279 281 242 221 234 241 237 235 233 225 216 215 212 209 201 187 179 169 168 176 166 160 170 166 167 170 166 156 155 157 154 155 150 147
23 19 17 16 17 19 20 11 9 6 1 351 347 343 336 327 309 311 304 286 273 270 247 248 256 257 258 258 261 268 266 256 254 257 255 252 254 259 260 258 265 268 269 271 274 276 275 272 274 274 275 275 272 229 211 222 233 237 233 231 231 221 217 218 216 203 188 173 173 175 181 174 163 164 169 168 168 172 163 162 153 158 156 151 146
31 25 22 19 11 3 5 8 10 10 9 6 359 354 348 340 332 319 308 303 296 288 273 249 249 245 244 254 260 271 269 258 244 254 264 264 259 259 264 268 269 269 269 270 268 268 271 274 271 265 267 264 259 230 205 212 221 232 226 225 232 222 220 224 228 202 190 177 178 178 183 178 166 159 170 168 170 173 170 163 159 165 156 150 143
29 24 27 26 24 23 17 11 6 3 5 3 358 355 353 350 344 339 326 315 309 302 298 299 293 286 277 267 266 259 271 284 284 277 267 264 267 265 265 267 271 275 275 273 272 269 266 273 274 266 259 253 248 239 206 206 214 221 228 229 231 224 221 218 220 204 194 186 183 178 181 182 171 164 172 172 169 172 170 173 169 160 156 145 150
24 26 26 28 24 28 28 24 21 15 7 360 357 354 354 353 352 349 344 337 330 320 311 304 300 282 270 270 266 262 266 264 257 260 269 285 285 276 268 263 267 272 275 274 271 271 268 268 272 274 279 291 301 286 210 208 210 218 220 226 231 228 222 220 223 208 203 191 187 182 182 183 170 165 175 175 172 170 163 156 183 174 151 152 160
21 22 21 19 16 22 25 26 25 22 19 17 13 5 355 352 352 352 351 350 344 338 337 335 318 297 273 264 266 266 263 266 273 277 280 282 276 271 270 269 263 264 264 269 271 270 267 264 268 272 272 270 267 280 262 216 209 211 216 219 226 230 225 219 221 215 213 199 192 191 191 179 170 171 179 177 173 164 161 164 187 173 157 158 164
21 18 18 17 11 16 17 21 22 24 25 23 19 15 12 2 352 348 350 350 348 346 344 344 337 331 324 310 299 289 268 255 265 271 280 278 275 268 262 265 269 264 257 262 266 268 268 265 259 262 265 262 260 262 265 251 216 211 212 218 225 227 224 219 216 222 217 199 198 198 191 182 177 179 181 178 177 168 167 173 167 174 166 163 166
23 21 16 11 16 16 17 17 18 20 22 23 23 20 17 13 8 359 351 348 346 346 344 343 343 335 328 318 300 293 295 283 261 257 262 265 267 265 263 258 255 255 256 256 258 260 264 265 261 255 256 256 255 258 258 257 235 215 211 214 218 220 218 217 215 248 233 219 200 196 192 190 186 186 181 181 179 172 171 175 171 176 171 168 164
27 21 20 16 14 14 17 16 16 16 16 17 17 18 18 18 14 10 6 359 354 348 342 340 339 338 335 323 318 313 306 297 296 287 263 258 260 262 260 255 248 247 249 253 257 258 260 261 261 259 258 258 252 245 251 248 242 229 217 214 212 211 208 209 208 209 228 217 210 195 191 195 193 189 184 184 182 177 175 173 173 176 175 173 167
31 22 17 20 17 17 15 17 17 16 14 14 13 12 12 12 13 12 11 7 1 356 351 345 340 337 333 330 327 317 310 304 300 288 285 276 256 259 265 265 258 253 253 257 258 258 255 257 257 257 255 252 251 250 246 245 237 234 226 217 214 209 202 206 205 214 222 220 213 203 193 197 195 193 191 188 186 181 180 175 174 178 175 175 173
31 24 20 20 17 16 16 13 16 16 15 13 11 9 10 9 9 8 6 6 6 3 359 354 348 341 337 333 329 326 319 312 305 296 297 294 284 261 265 268 265 263 259 256 257 259 257 253 254 254 250 242 240 241 245 242 236 230 232 223 214 209 200 197 201 218 222 219 225 216 204 199 197 193 197 194 189 183 182 180 178 178 177 179 177
25 22 26 18 15 14 14 13 12 14 12 13 11 9 7 8 8 6 4 2 1 2 0 357 354 349 344 338 332 327 321 316 312 306 298 291 292 291 272 266 269 266 265 263 260 259 261 260 252 248 248 242 234 226 233 240 237 231 231 228 216 213 203 196 201 209 217 215 215 216 213 206 200 194 197 200 193 187 182 184 182 179 179 179 178
22 26 27 20 16 12 12 11 9 11 11 9 7 4 4 7 8 5 3 1 360 358 357 355 353 348 344 338 334 329 322 319 316 315 306 298 292 292 288 276 264 260 264 264 262 256 261 266 254 243 244 245 241 228 225 235 235 234 230 225 217 212 205 200 209 206 215 216 215 220 213 216 203 198 199 201 197 191 189 186 187 183 182 179 178
22 24 23 22 17 14 14 13 12 8 8 8 6 1 1 2 6 4 3 1 359 357 355 354 351 347 345 343 339 332 324 319 313 310 310 305 295 281 282 284 276 267 260 255 255 254 241 240 243 242 243 244 244 239 229 231 233 230 232 225 220 214 206 202 213 208 210 218 216 216 216 217 204 203 202 204 199 191 195 190 190 186 181 178 179
18 18 21 18 15 17 16 16 15 12 9 3 1 2 359 2 5 2 359 357 357 357 355 353 349 348 345 343 339 335 330 324 319 314 302 298 292 289 283 284 281 274 264 259 255 251 245 243 240 241 241 240 242 242 237 233 231 229 230 227 221 218 212 206 210 215 208 212 211 216 219 216 211 203 202 205 203 198 195 191 192 185 179 181 175
13 9 11 7 11 16 14 17 16 14 10 4 1 1 355 357 1 1 360 356 353 354 354 354 352 348 347 343 340 340 335 331 326 318 314 310 300 294 289 286 284 276 272 266 260 258 260 248 240 239 240 239 238 241 240 236 235 229 226 227 220 216 217 208 206 216 211 215 218 219 220 217 212 206 203 207 205 200 197 194 190 184 185 177 179
5 2 2 3 7 8 7 14 11 13 9 5 3 2 357 356 359 358 356 355 354 354 351 353 353 350 347 343 341 337 336 333 328 322 317 311 306 298 290 286 288 282 273 267 263 256 251 249 242 240 239 240 239 239 240 238 236 231 225 225 222 218 210 228 216 209 200 208 222 222 216 217 212 208 204 211 209 199 198 199 190 183 179 181 180
4 359 356 2 3 0 1 10 11 7 4 3 2 0 357 356 359 359 355 352 352 352 352 354 352 347 344 342 341 339 335 332 329 323 314 307 304 298 293 288 285 281 276 270 262 258 255 251 247 241 240 240 242 240 233 230 232 232 231 225 224 220 204 211 217 212 205 212 210 215 213 210 210 211 210 211 211 201 199 199 191 187 181 179 179
346 340 340 347 3 4 356 3 2 2 2 355 357 357 355 352 355 358 356 352 352 350 350 351 348 345 341 341 344 341 339 334 330 328 326 323 321 315 306 297 289 282 277 274 273 264 255 249 242 241 244 242 238 236 231 228 227 225 226 223 223 219 212 210 213 208 209 212 215 216 212 206 208 209 212 213 213 205 203 200 198 188 184 182 180
338 320 343 351 355 354 352 345 349 355 357 351 353 351 347 345 347 352 352 351 349 348 349 347 345 343 341 341 344 343 341 336 333 332 332 329 325 322 320 314 308 300 292 281 270 271 274 263 254 248 241 237 234 231 226 230 223 223 219 218 222 221 217 217 214 209 208 211 214 214 214 208 205 208 212 215 214 205 201 199 198 192 187 184 180
336 5 328 339 338 342 347 337 350 347 354 349 347 339 345 344 344 344 346 342 344 344 346 345 342 342 339 341 341 343 341 337 336 336 335 335 332 328 325 322 316 306 296 287 280 270 256 251 246 242 240 234 233 228 225 224 225 222 218 215 218 220 218 219 217 213 208 211 215 212 212 211 205 207 212 215 216 209 204 203 201 197 188 187 181
346 342 324 330 329 339 344 345 346 340 340 331 334 343 343 334 332 333 344 333 339 339 340 339 337 337 336 339 341 340 338 336 336 338 337 337 332 329 327 325 319 312 303 293 285 273 259 252 244 241 238 235 235 231 228 224 223 224 220 215 215 216 216 217 216 215 212 213 215 213 213 212 208 206 210 214 215 212 203 207 201 196 193 187 183
359 322 338 321 325 325 330 345 328 341 336 338 348 353 345 344 337 336 339 333 340 334 330 324 325 331 331 332 335 333 333 332 333 333 332 330 326 324 326 322 318 315 312 302 294 283 272 259 254 248 240 235 233 233 230 227 224 223 223 216 213 214 215 215 214 214 214 214 214 215 213 214 213 209 208 212 215 215 204 208 203 199 192 189 186
11 340 326 328 317 318 337 348 347 350 352 350 360 354 354 351 348 351 350 346 344 339 332 322 323 322 322 323 328 328 328 326 327 328 326 324 321 326 326 321 317 315 313 306 299 292 278 265 251 246 241 233 231 233 230 229 224 222 222 220 214 212 212 214 213 212 214 213 213 216 214 215 215 212 211 211 214 217 207 206 204 199 194 192 184
335 339 351 325 320 333 343 345 349 351 353 2 359 356 353 351 350 350 348 348 344 337 334 332 327 325 322 316 318 319 319 319 318 320 323 320 320 321 322 319 318 315 312 307 305 298 294 285 267 248 235 233 230 229 226 229 225 221 220 221 217 212 209 210 212 210 212 213 215 215 212 213 218 219 216 214 216 217 212 206 210 209 198 189 193
6 5 345 335 326 344 339 340 343 352 359 6 357 353 349 349 342 341 345 345 339 336 336 332 330 328 325 320 314 314 312 312 313 314 311 312 315 317 316 319 317 317 313 308 306 300 295 287 281 272 260 251 240 229 223 228 227 223 219 219 219 213 210 209 212 209 210 214 215 212 205 206 219 222 225 221 220 218 214 209 205 204 202 198 192
17 353 331 312 336 331 321 328 345 351 2 1 356 348 345 334 330 340 343 341 337 334 330 328 328 327 325 322 319 317 314 308 307 309 310 308 303 306 311 315 314 314 312 310 309 305 297 290 283 277 262 245 237 237 226 224 226 224 217 215 214 216 213 209 211 210 211 212 212 207 198 206 215 220 226 228 225 223 213 208 211 211 202 199 194
345 322 307 329 327 316 323 324 341 351 0 356 351 339 339 345 347 347 344 344 340 336 330 326 322 321 319 322 322 321 316 310 306 304 303 302 300 298 300 304 308 308 311 310 309 306 302 297 288 274 266 259 250 244 238 228 227 223 217 215 211 214 213 214 212 212 214 211 210 208 202 203 212 221 224 226 228 221 210 202 208 210 206 203 193
330 325 331 333 306 321 313 319 340 351 354 355 355 353 352 348 348 345 347 346 343 337 331 326 322 319 321 321 321 319 316 311 308 305 302 296 293 292 292 294 298 305 306 309 307 307 302 298 294 286 269 256 248 240 232 232 229 223 218 215 210 211 209 214 216 214 211 211 206 203 202 192 201 209 219 224 223 218 204 198 209 208 203 194 192
336 321 313 296 310 319 313 330 344 357 0 3 359 358 353 350 349 348 348 346 340 334 330 326 322 320 320 318 320 318 317 313 309 304 298 293 289 288 287 287 289 296 303 304 305 304 301 298 300 294 280 260 249 240 229 227 223 219 216 210 211 208 206 211 210 212 207 208 204 199 197 194 195 200 207 209 218 218 202 196 206 215 199 198 195
297 274 297 305 316 325 325 349 359 9 7 3 0 356 353 350 347 345 343 342 336 334 333 328 325 324 324 323 323 320 316 314 312 308 300 293 288 284 280 281 286 289 294 301 303 302 302 298 296 296 294 275 254 244 229 227 223 221 217 212 212 205 208 207 204 204 205 201 200 201 195 193 189 193 196 198 200 202 198 201 211 211 200 204 190
271 296 311 309 323 334 333 4 10 10 5 360 356 352 353 349 347 345 340 338 338 336 332 330 329 330 330 325 323 320 318 314 309 305 298 293 287 282 282 276 275 283 288 295 296 298 299 300 297 296 289 286 267 245 234 227 224 222 212 211 208 205 205 204 202 199 195 200 201 195 195 192 187 183 185 185 192 195 194 195 209 209 205 194 192
305 303 305 310 324 327 348 12 10 7 359 354 354 354 351 347 345 342 341 338 338 335 333 334 331 328 325 322 322 316 311 307 304 300 295 289 285 281 279 279 273 273 281 286 291 294 296 296 299 299 300 294 282 259 240 227 222 219 213 209 207 202 205 202 198 191 192 196 195 194 194 187 178 180 183 180 178 185 184 201 209 224 208 195 191
325 337 330 323 333 344 6 8 7 0 358 357 357 356 349 345 342 341 340 337 334 333 332 327 329 326 324 322 319 312 310 309 309 306 300 295 290 284 282 277 273 271 274 281 288 292 292 294 295 298 296 293 292 281 250 229 225 217 211 207 200 201 199 198 192 191 192 190 188 192 186 186 189 179 176 168 168 176 182 180 198 202 217 218 205
358 357 327 334 344 3 12 8 3 358 358 4 359 354 350 348 345 342 338 336 329 327 329 326 326 326 320 316 310 308 320 326 322 313 305 299 293 288 283 280 273 266 273 281 283 287 294 298 296 297 299 299 294 287 266 235 225 217 209 204 200 194 194 189 190 190 183 176 178 175 185 176 181 170 170 169 160 169 176 175 177 202 204 206 220
355 332 329 340 357 16 13 7 356 1 7 4 0 353 349 344 344 339 330 331 324 321 318 322 319 314 314 314 318 322 320 317 316 318 312 309 304 297 290 282 273 267 267 271 273 277 285 286 290 288 296 301 300 295 284 251 225 216 209 201 199 196 189 186 185 184 182 177 169 175 180 171 171 176 165 165 160 158 166 170 178 176 191 186 183
319 319 339 346 6 16 15 350 353 5 11 6 352 350 354 346 333 329 326 319 323 323 322 321 315 312 318 321 320 316 313 312 314 310 306 302 302 301 294 286 280 275 272 268 269 267 277 286 288 292 271 284 287 286 294 294 241 209 196 202 195 192 194 186 181 179 177 172 167 168 189 164 171 168 161 167 160 155 162 168 165 181 179 171 192
283 313 336 3 3 3 339 351 355 7 0 359 355 347 341 338 336 323 327 319 309 298 300 306 310 316 318 318 316 314 316 313 310 307 301 298 297 299 298 295 286 281 278 271 266 270 264 278 282 280 297 273 272 281 280 281 279 237 203 165 192 158 160 200 207 194 179 173 167 170 174 177 160 162 157 155 150 147 153 158 165 160 175 161 152
331 338 346 343 330 332 330 353 358 4 359 350 349 337 333 328 325 321 318 315 312 312 304 291 294 309 313 314 309 314 310 305 308 304 303 310 311 306 303 297 292 283 273 273 271 268 264 265 273 266 274 295 296 294 284 280 281 275 216 199 179 183 177 202 188 201 205 179 171 172 163 165 158 159 156 156 159 150 151 162 161 161 160 156 146
319 309 315 300 306 305 309 343 5 357 341 336 340 338 335 334 330 322 313 309 305 309 315 317 318 311 303 310 313 307 302 298 299 305 312 310 306 301 298 295 294 288 279 271 268 263 259 250 260 268 259 278 292 292 291 283 279 281 269 203 185 193 198 188 174 189 190 193 202 170 171 166 166 162 161 159 142 150 149 160 161 157 150 155 150
303 292 266 263 271 285 300 357 358 342 336 338 349 352 347 341 337 337 334 331 320 323 322 322 322 324 322 318 315 317 309 304 302 303 305 305 302 299 296 299 297 295 288 276 268 264 260 254 240 244 259 255 272 288 288 286 277 280 284 266 195 188 182 181 169 189 188 207 176 185 173 169 173 167 158 150 155 153 160 160 161 159 156 151 147
272 268 270 268 277 280 291 339 334 322 327 342 359 355 341 337 333 324 318 315 311 305 304 298 298 305 308 310 312 309 310 306 304 305 304 302 301 301 299 295 294 291 290 283 273 265 260 247 230 225 235 248 263 277 280 287 299 283 277 282 261 314 198 154 183 96 153 220 220 178 179 175 173 175 163 165 161 158 163 159 163 161 155 147 144
251 270 268 278 272 274 302 324 324 336 339 350 354 360 334 330 324 319 309 302 296 298 308 309 306 302 303 305 306 308 307 303 302 303 304 307 306 306 307 303 299 297 296 287 280 269 259 244 229 225 219 215 247 262 277 279 279 287 285 284 280 268 175 181 174 169 168 169 194 232 177 176 172 181 171 163 164 164 162 166 160 162 153 150 145
257 250 268 268 260 259 276 299 327 338 327 338 337 331 327 316 312 307 305 296 292 293 298 300 303 303 301 301 302 305 302 302 299 303 305 305 303 300 298 297 295 297 297 295 288 275 257 243 230 225 214 218 221 249 262 271 268 269 295 288 289 267 201 182 188 186 170 161 175 172 166 166 177 187 177 169 169 166 169 168 166 155 158 150 146
244 259 269 271 265 243 257 300 320 328 315 320 313 309 306 304 301 302 299 301 301 295 291 295 298 303 301 301 303 301 304 302 300 296 303 304 301 298 297 296 293 292 296 296 297 286 266 245 235 222 221 224 219 234 248 262 267 273 260 282 288 289 240 182 179 180 181 177 169 178 169 163 176 195 177 173 170 168 168 170 165 160 152 150 146
278 273 271 266 248 244 262 325 311 319 322 307 300 294 296 291 293 296 299 301 302 300 302 299 300 300 300 300 302 302 298 299 302 302 299 298 296 296 297 299 296 291 290 295 299 301 293 274 245 228 219 224 219 229 242 252 259 267 270 264 268 275 275 203 180 183 175 176 177 177 174 177 176 169 182 170 170 168 165 176 168 167 159 158 152